Location: Cactus School
(34.5700°N, 118.0931°W)
Time: 21:37:46
(UTC-08:00)

ISS - Visible Passes

Search period start: 21 November 2017 00:00
Search period end: 01 December 2017 00:00
Orbit: 402 x 407 km, 51.6° (Epoch: 22 November)

Date Brightness Start Highest point End Pass type
(mag) Time Alt. Az. Time Alt. Az. Time Alt. Az.
21 Nov -1.2 04:51:20 12° S 04:51:20 12° S 04:51:47 10° S visible
23 Nov -1.4 18:04:16 10° SSE 18:05:02 12° SSE 18:05:02 12° SSE visible
24 Nov -1.7 18:46:37 10° SW 18:48:05 24° SW 18:48:05 24° SW visible
25 Nov -3.1 17:54:36 10° SSW 17:57:38 37° SE 17:58:19 33° ESE visible
26 Nov -2.1 18:38:43 10° WSW 18:41:09 31° WNW 18:41:09 31° WNW visible
27 Nov -3.7 17:46:04 10° SW 17:49:20 71° NW 17:51:12 23° NE visible
28 Nov -1.4 18:31:31 10° WNW 18:33:41 16° NNW 18:33:50 16° NNW visible
29 Nov -2.1 17:38:17 10° W 17:41:08 27° NW 17:43:43 12° NNE visible
